Weather reports worldwide

Advertisment
Koivu-Mankkaa, Finland (2985): temperature & dewpoint: 11.10.2018 09:00:00 - 17.10.2018 09:00:00 (EEST)Koivu-Mankkaa, Finland (2985): wind speed & gusts: 11.10.2018 09:00:00 - 17.10.2018 09:00:00 (EEST)Koivu-Mankkaa, Finland (2985): wind direction: 11.10.2018 09:00:00 - 17.10.2018 09:00:00 (EEST)Koivu-Mankkaa, Finland (2985): reduced air pressure: 11.10.2018 09:00:00 - 17.10.2018 09:00:00 (EEST)Koivu-Mankkaa, Finland (2985): visibility: 11.10.2018 09:00:00 - 17.10.2018 09:00:00 (EEST)Koivu-Mankkaa, Finland (2985): precipitation: 11.10.2018 09:00:00 - 17.10.2018 09:00:00 (EEST)
Date & Time tt [°C] td [°C] ff [km/h] ff [kn] fx [km/h] fx [kn] dd ppp [hPa] vv [km] rr [mm]
17.10.2018 09:00:00 10,4 10,2 10 5 15 8 S 1020,0 0,5 0,0
17.10.2018 08:00:00 10,6 10,4 9 5 15 8 SSE 1020,1 0,4 0,0
17.10.2018 07:00:00 10,6 10,4 8 4 14 8 SSE 1020,2 1,0 0,0
17.10.2018 06:00:00 10,7 10,5 5 3 11 6 SSE 1020,5 0,3 0,0
17.10.2018 05:00:00 10,7 10,4 6 3 9 5 SSE 1020,4 0,2 0,0
17.10.2018 04:00:00 11,0 10,3 8 4 16 8 SE 1020,4 4,0 0,0
17.10.2018 03:00:00 11,4 9,9 7 4 18 10 ESE 1020,5 10 0,0
17.10.2018 02:00:00 11,6 9,9 10 5 23 12 E 1020,1 11 0,0
17.10.2018 01:00:00 11,2 10,2 6 3 11 6 ENE 1020,9 10 0,0
17.10.2018 00:00:00 11,0 10,2 6 4 9 5 ENE 1020,9 9 0,0
16.10.2018 23:00:00 10,7 10,2 6 4 9 5 NNE 1021,0 8 0,0
16.10.2018 22:00:00 10,5 10,0 3 1 5 3 N 1020,8 8 0,0
16.10.2018 21:00:00 10,2 9,8 5 3 8 4 E 1020,3 6 0,0
16.10.2018 20:00:00 10,1 9,6 4 2 8 4 NE 1020,3 5 0,0
16.10.2018 19:00:00 11,6 10,1 4 2 13 7 NNE 1020,0 10 0,0
16.10.2018 18:00:00 12,3 10,4 13 7 19 10 NNW 1019,5 11 0,0
16.10.2018 17:00:00 12,7 10,4 13 7 21 11 NNW 1019,2 14 0,0
16.10.2018 16:00:00 13,8 10,9 12 7 19 10 NW 1018,8 14 0,0
16.10.2018 15:00:00 14,2 10,9 9 5 22 12 NW 1018,2 16 0,0
16.10.2018 14:00:00 14,2 11,0 14 8 21 12 W 1017,7 16 0,0
16.10.2018 13:00:00 13,6 11,1 10 5 19 10 W 1017,5 15 0,0
16.10.2018 12:00:00 12,9 11,0 13 7 25 13 W 1017,1 13 0,0
16.10.2018 11:00:00 12,5 10,8 18 10 31 17 SW 1016,3 13 0,0
16.10.2018 10:00:00 12,1 10,7 20 11 35 19 WSW 1015,9 14 0,0
16.10.2018 09:00:00 11,6 10,3 18 10 35 19 SW 1015,4 15 0,0
16.10.2018 08:00:00 11,3 10,0 18 10 29 16 SW 1015,1 16 0,0
16.10.2018 07:00:00 11,3 9,8 16 8 29 16 SW 1015,3 15 0,0
16.10.2018 06:00:00 11,3 9,8 16 9 33 18 SSW 1015,2 18 0,0
16.10.2018 05:00:00 11,0 9,6 15 8 27 15 SW 1015,8 17 0,0
16.10.2018 04:00:00 10,5 9,9 15 8 28 15 SSW 1015,9 15 0,0
16.10.2018 03:00:00 8,6 8,4 13 7 18 10 SSW 1016,5 0,7 0,0
16.10.2018 02:00:00 9,2 8,9 11 6 19 11 S 1016,9 3,9 0,0
16.10.2018 01:00:00 9,8 9,3 13 7 25 13 SSW 1017,1 10 0,0
16.10.2018 00:00:00 10,4 9,6 14 8 25 14 SSW 1017,4 15 0,0
15.10.2018 23:00:00 9,7 9,5 14 7 23 13 SSW 1017,9 7 0,0
15.10.2018 22:00:00 9,0 8,7 11 6 20 11 S 1018,3 6 0,0
15.10.2018 21:00:00 9,5 9,0 11 6 16 9 SSW 1018,6 10 0,0
15.10.2018 20:00:00 10,0 9,2 9 5 17 9 SW 1018,7 15 0,0
15.10.2018 19:00:00 11,8 9,5 11 6 22 12 WSW 1018,7 18 0,0
15.10.2018 18:00:00 14,1 9,8 13 7 28 15 WSW 1018,3 21 0,0
15.10.2018 17:00:00 14,9 9,9 18 10 37 20 SW 1018,6 22 0,0
15.10.2018 16:00:00 15,3 10,2 21 12 40 22 SW 1018,7 22 0,0
15.10.2018 15:00:00 15,3 10,4 16 9 34 18 SW 1018,6 8 0,0
15.10.2018 14:00:00 14,4 10,3 13 7 27 15 SSW 1018,7 21 0,0
15.10.2018 13:00:00 14,4 10,1 9 5 39 21 SSW 1018,9 19 0,0
15.10.2018 12:00:00 13,4 9,7 18 10 33 18 SSW 1019,2 21 0,0
15.10.2018 11:00:00 13,0 9,8 14 8 33 18 S 1019,1 22 0,0
15.10.2018 10:00:00 11,3 9,7 14 8 24 13 S 1019,0 18 0,0
15.10.2018 09:00:00 10,4 9,5 16 8 27 14 SSW 1019,0 15 0,0
15.10.2018 08:00:00 9,9 9,5 16 9 26 14 S 1018,8 11 0,0
15.10.2018 07:00:00 9,3 8,9 14 7 25 14 SSW 1019,1 2,1 0,0
15.10.2018 06:00:00 9,9 9,6 18 10 29 15 S 1019,2 8 0,0
15.10.2018 05:00:00 9,9 9,8 16 9 27 15 S 1019,5 4,8 0,0
15.10.2018 04:00:00 9,4 9,2 16 9 22 12 S 1019,9 0,9 0,0
15.10.2018 03:00:00 9,8 9,6 10 6 21 12 SW 1020,3 8 0,0
15.10.2018 02:00:00 9,6 9,4 14 8 22 12 S 1020,5 0,9 0,0
15.10.2018 01:00:00 10,3 9,9 16 9 24 13 SSW 1020,9 3,1 0,0
15.10.2018 00:00:00 10,9 10,2 14 8 24 13 SSW 1021,1 7 0,0
14.10.2018 23:00:00 11,7 10,8 12 7 26 14 SSW 1021,3 10 0,0
14.10.2018 22:00:00 11,3 11,1 14 8 28 15 S 1021,5 7 0,0
14.10.2018 21:00:00 8,7 8,5 12 7 18 10 S 1021,6 0,4 0,0
14.10.2018 20:00:00 9,9 9,6 9 5 16 9 S 1021,9 1,1 0,0
14.10.2018 19:00:00 11,4 10,8 12 6 17 9 SSW 1022,4 6 0,0
14.10.2018 18:00:00 13,5 11,3 9 5 21 12 SW 1022,5 11 0,0
14.10.2018 17:00:00 15,4 11,6 13 7 27 15 SW 1022,7 13 0,0
14.10.2018 16:00:00 15,5 11,6 18 10 32 18 SW 1023,0 13 0,0
14.10.2018 15:00:00 15,5 11,5 16 9 29 16 SSW 1023,2 13 0,0
14.10.2018 14:00:00 15,4 11,5 19 10 29 15 SW 1023,4 14 0,0
14.10.2018 13:00:00 15,2 11,7 17 9 29 15 SSW 1023,6 13 0,0
14.10.2018 12:00:00 15,1 11,8 13 7 26 14 SSW 1023,5 12 0,0
14.10.2018 11:00:00 14,1 11,7 14 8 29 16 SW 1023,5 10 0,0
14.10.2018 10:00:00 12,3 11,5 16 8 26 14 SW 1023,4 7 0,0
14.10.2018 09:00:00 11,0 10,7 12 7 24 13 SW 1023,1 2,6 0,0
14.10.2018 08:00:00 10,5 10,3 15 8 24 13 SW 1023,3 1,5 0,0
14.10.2018 07:00:00 10,5 10,3 14 7 22 12 SSW 1023,3 1,8 0,0
14.10.2018 06:00:00 10,6 10,2 14 8 25 14 SSW 1023,3 2,4 0,0
14.10.2018 05:00:00 11,5 10,6 14 8 23 12 SW 1023,4 7 0,0
14.10.2018 04:00:00 12,1 10,8 16 9 24 13 SW 1023,5 8 0,0
14.10.2018 03:00:00 12,2 10,8 16 8 24 13 SW 1023,6 8 0,0
14.10.2018 02:00:00 12,3 11,1 14 8 26 14 SW 1023,7 8 0,0
14.10.2018 01:00:00 12,5 11,2 16 9 27 14 SW 1023,9 8 0,0
14.10.2018 00:00:00 11,8 11,2 14 7 22 12 SSW 1024,0 6 0,0
13.10.2018 23:00:00 12,2 11,3 13 7 23 13 SW 1024,3 7 0,0
13.10.2018 22:00:00 12,5 11,3 11 6 27 15 SW 1024,2 8 0,0
13.10.2018 21:00:00 12,9 11,7 14 8 29 16 SW 1024,2 9 0,0
13.10.2018 20:00:00 13,2 11,8 18 10 32 18 SW 1024,3 8 0,0
13.10.2018 19:00:00 13,3 11,8 18 10 29 16 SW 1024,2 8 0,0
13.10.2018 18:00:00 13,5 11,8 15 8 29 16 SW 1023,8 9 0,0
13.10.2018 17:00:00 13,6 11,9 13 7 24 13 SW 1024,1 10 0,0
13.10.2018 16:00:00 13,8 11,9 11 6 26 14 SW 1024,4 10 0,0
13.10.2018 15:00:00 13,8 11,8 16 9 31 17 SW 1024,4 10 0,0
13.10.2018 14:00:00 14,0 11,9 10 6 36 19 SW 1024,2 11 0,0
13.10.2018 13:00:00 14,3 11,8 25 13 39 21 WSW 1024,5 13 0,0
13.10.2018 12:00:00 13,5 12,1 17 9 33 18 WSW 1024,5 11 0,0
13.10.2018 11:00:00 12,5 11,9 15 8 29 15 SW 1024,3 9 0,0
13.10.2018 10:00:00 12,0 11,9 14 8 24 13 SW 1024,0 10 0,0
13.10.2018 09:00:00 10,5 10,4 11 6 21 11 SW 1023,7 3,9 0,0
13.10.2018 08:00:00 10,2 10,1 13 7 22 12 SW 1023,7 1,5 0,0
13.10.2018 07:00:00 10,2 10,1 14 8 22 12 SW 1023,8 3,3 0,0
13.10.2018 06:00:00 7,0 6,9 12 7 16 9 S 1023,7 0,6 0,0
13.10.2018 05:00:00 6,2 6,1 12 7 16 8 S 1024,1 3,0 0,0
13.10.2018 04:00:00 7,6 7,5 5 3 14 8 SSW 1024,5 0,1 0,0
13.10.2018 03:00:00 9,3 9,2 12 6 18 10 SSW 1024,7 0,6 0,0
13.10.2018 02:00:00 8,9 8,7 13 7 18 10 SSW 1025,2 0,6 0,0
13.10.2018 01:00:00 7,6 7,5 14 7 18 10 S 1025,4 1,1 0,0
13.10.2018 00:00:00 7,1 7,0 9 5 12 7 SSW 1025,9 1,9 0,0
12.10.2018 23:00:00 7,8 7,7 11 6 13 7 S 1026,0 0,4 0,0
12.10.2018 22:00:00 9,1 8,9 4 2 8 4 SE 1026,1 0,3 0,0
12.10.2018 21:00:00 9,5 9,3 0 0 9 5 N 1026,1 0,3 0,0
12.10.2018 20:00:00 9,1 8,9 6 4 9 5 SE 1026,6 1,8 0,0
12.10.2018 19:00:00 9,6 9,2 3 2 11 6 S 1027,0 2,8 0,0
12.10.2018 18:00:00 10,7 9,9 7 4 18 10 S 1027,5 8 0,0
12.10.2018 17:00:00 10,9 9,9 12 7 19 10 SSW 1027,6 8 0,0
12.10.2018 16:00:00 11,0 10,2 10 5 21 12 SSW 1027,8 6 0,0
12.10.2018 15:00:00 10,7 10,1 11 6 22 12 S 1028,1 5 0,0
12.10.2018 14:00:00 10,7 10,0 8 5 18 10 SSE 1028,5 7 0,0
12.10.2018 13:00:00 10,7 10,3 9 5 20 11 S 1029,0 6 0,0
12.10.2018 12:00:00 10,6 10,3 10 5 21 11 S 1029,2 4,2 0,0
12.10.2018 11:00:00 10,7 10,5 9 5 21 11 S 1029,4 1,7 0,0
12.10.2018 10:00:00 10,5 10,3 12 6 21 11 SSW 1029,4 2,1 0,0
12.10.2018 09:00:00 10,3 10,0 10 6 18 10 SSW 1029,1 2,6 0,0
12.10.2018 08:00:00 10,3 10,0 8 4 15 8 SSW 1029,2 2,0 0,0
12.10.2018 07:00:00 10,3 9,8 10 6 19 10 SW 1029,3 5 0,0
12.10.2018 06:00:00 10,5 9,7 10 6 22 12 SW 1029,7 9 0,0
12.10.2018 05:00:00 11,0 9,8 13 7 24 13 SW 1030,0 19 0,0
12.10.2018 04:00:00 10,8 10,1 12 6 18 10 SSW 1030,0 18 0,0
12.10.2018 03:00:00 10,8 9,7 6 3 16 9 S 1030,1 24 0,0
12.10.2018 02:00:00 11,1 9,6 12 7 22 12 SW 1030,5 23 0,0
12.10.2018 01:00:00 10,9 9,9 14 7 24 13 SSW 1030,7 18 0,0
12.10.2018 00:00:00 11,1 10,1 12 6 21 12 S 1030,6 16 0,0
11.10.2018 23:00:00 10,8 10,2 11 6 19 10 SSW 1030,5 24 0,0
11.10.2018 22:00:00 10,5 10,1 8 4 13 7 SSW 1030,7 11 0,0
11.10.2018 21:00:00 10,5 10,0 6 3 11 6 S 1030,8 10 0,0
11.10.2018 20:00:00 10,5 10,1 5 3 11 6 SSW 1030,8 10 0,0
11.10.2018 19:00:00 10,4 9,8 6 3 9 5 S 1030,8 11 0,0
11.10.2018 18:00:00 11,0 10,3 6 3 14 7 SSW 1030,8 13 0,0
11.10.2018 17:00:00 11,3 10,3 10 5 15 8 S 1030,8 21 0,0
11.10.2018 16:00:00 11,8 10,5 9 5 16 9 S 1030,9 28 0,0
11.10.2018 15:00:00 12,0 9,8 9 5 16 9 SSE 1030,8 45 0,0
11.10.2018 14:00:00 12,4 9,5 9 5 13 7 SE 1030,9 45 0,0
11.10.2018 13:00:00 12,3 9,7 5 3 9 5 S 1031,1 44 0,0
11.10.2018 12:00:00 11,5 9,6 5 3 12 6 S 1031,2 40 0,0
11.10.2018 11:00:00 9,6 9,5 7 4 12 6 S 1031,0 38 0,0
11.10.2018 10:00:00 4,5 4,3 10 5 13 7 ESE 1030,5 21 0,0
11.10.2018 09:00:00 2,3 2,2 4 2 - - ESE 1030,4 19 0,0

tt = temperature
td = dewpoint
ff = wind speed
fx = gusts
dd = wind direction
ppp = reduced air pressure
vv = visibility
rr = precipitation

Next stations